Weather History for CWSP - September, 2013

Change the Weather History Date:

Sunday, September 22, 2013

  Actual Average Record
Temperature  
Mean Temperature 55 °F -  
Max Temperature 59 °F - - ()
Min Temperature 51 °F - - ()
Degree Days  
Heating Degree Days 10    
Growing Degree Days 5 (Base 50)    
Moisture  
Dew Point 52 °F    
Average Humidity 89    
Maximum Humidity 96    
Minimum Humidity 77    
Precipitation  
Precipitation 0.63 in - - ()
Sea Level Pressure  
Sea Level Pressure 29.58 in    
Wind  
Wind Speed 5 mph ()    
Max Wind Speed 14 mph    
Max Gust Speed 24 mph    
T = Trace of Precipitation, MM = Missing Value Source: Averaged Metar Reports

Daily Weather History Graph

Daily Weather History Graph

Search for Another Location

Airport or City:

Trip Planner

Search our weather history database for the weather conditions in past years. The results will help you decide how hot, cold, wet, or windy it might be!

Date:

Astronomy

Sep. 22, 2013 Rise Set
Actual Time 7:02 AM PDT 7:12 PM PDT
Civil Twilight 6:31 AM PDT 7:43 PM PDT
Nautical Twilight 5:54 AM PDT 8:20 PM PDT
Astronomical Twilight 5:16 AM PDT 8:58 PM PDT
Moon 8:46 PM PDT (9/22) 10:47 AM PDT (9/22)
Length of Visible Light 13h 12m
Length of Day
12h 09m
Waning Gibbous, 88% of the Moon is Illuminated
Sep 22
Waning Gibbous
Sep 26
Last Quarter
Oct 4
New
Oct 11
First Quarter
Oct 18
Full

Hourly Weather History & Observations

Time (PDT) Temp. Dew Point Humidity Pressure Visibility Wind Dir Wind Speed Gust Speed Precip Events Conditions
12:00 AM 58.3 °F 53.2 °F 83% 29.67 in - WNW 5.8 mph - N/A   Unknown
1:00 AM 58.6 °F 52.2 °F 79% 29.65 in - NW 9.2 mph - N/A   Unknown
2:00 AM 57.4 °F 52.2 °F 83% 29.64 in - NW 5.8 mph - N/A   Unknown
3:00 AM 58.3 °F 51.3 °F 77% 29.63 in - WNW 6.9 mph - N/A   Unknown
4:00 AM 52.9 °F 48.7 °F 86% 29.62 in - NE 4.6 mph - N/A   Unknown
5:00 AM 54 °F 52 °F 89% 29.61 in - Calm Calm - -  
5:00 AM 54.1 °F 51.6 °F 91% 29.61 in - Calm Calm - N/A   Unknown
6:00 AM 54.9 °F 51.6 °F 89% 29.60 in - NW 5.8 mph - 0.07 in   Unknown
7:00 AM 54.1 °F 51.4 °F 91% 29.57 in - NW 4.6 mph - 0.05 in   Unknown
8:00 AM 53.6 °F 51.1 °F 91% 29.55 in - NE 4.6 mph - 0.02 in   Unknown
9:00 AM 54.7 °F 51.3 °F 88% 29.51 in - ENE 8.1 mph - 0.02 in   Unknown
10:00 AM 53.2 °F 51.3 °F 93% 29.48 in - East 8.1 mph - 0.05 in   Unknown
11:00 AM 55 °F 51 °F 82% 29.44 in - East 6.9 mph - -  
11:00 AM 54.7 °F 51.1 °F 88% 29.44 in - East 6.9 mph - 0.06 in   Unknown
12:00 PM 51.3 °F 49.5 °F 94% 29.49 in - WNW 13.8 mph 24.2 mph 0.20 in   Unknown
1:00 PM 52.2 °F 50.5 °F 94% 29.48 in - SSW 9.2 mph - 0.09 in   Unknown
2:00 PM 53.8 °F 52.5 °F 95% 29.51 in - WNW 3.5 mph - N/A   Unknown
3:00 PM 54.5 °F 53.2 °F 96% 29.53 in - WNW 3.5 mph - 0.14 in   Unknown
4:00 PM 55.2 °F 52.3 °F 90% 29.55 in - WNW 3.5 mph - 0.02 in   Unknown
5:00 PM 56 °F 53 °F 85% 29.57 in - NW 6.9 mph - -  
5:00 PM 56.3 °F 52.7 °F 88% 29.57 in - NW 6.9 mph - 0.19 in   Unknown
6:00 PM 55.0 °F 52.7 °F 92% 29.58 in - WNW 6.9 mph - 0.02 in   Unknown
7:00 PM 53.4 °F 51.6 °F 94% 29.60 in - East 2.3 mph - 0.02 in   Unknown
8:00 PM 53.4 °F 52.3 °F 96% 29.62 in - Calm Calm - N/A   Unknown
9:00 PM 54.7 °F 52.5 °F 92% 29.63 in - NW 9.2 mph - 0.05 in   Unknown
10:00 PM 53.8 °F 51.4 °F 92% 29.65 in - WNW 8.1 mph - N/A   Unknown
11:00 PM 54 °F 51 °F 88% 29.68 in - West 10.4 mph - -  
11:00 PM 54.1 °F 51.4 °F 91% 29.68 in - West 10.4 mph - 0.04 in   Unknown